Location: Volkssternwarte_EN
(51.3230°N, 7.4010°E)
Time: 06:47:25
(UTC+01:00)

BlueWalker 3 - Pass Details

Date: 02 December 2022
Orbit: 499 x 517 km, 53.2° (Epoch: 28 January)

Event Time Altitude Azimuth Distance (km) Brightness Sun altitude
Rises 20:10:38 0° 289° (WNW) 2,626 6.6 -34.2°
Reaches altitude 10° 20:12:50 10° 287° (WNW) 1,734 5.4 -34.5°
Enters shadow 20:13:18 13° 286° (WNW) 1,554 5.1 -34.6°
